www.pogodaiklimat.ru

Погода и климат >> Архив погоды >> Ирак >> Basrah Airport


ПОГОДА в Basrah Airport

  • Прогноз погоды в Basrah Airport
  • Монитор погоды в Basrah Airport
  • Климат города

АРХИВ ПОГОДЫ в Basrah Airport

Время (UTC), дата Ветер
(напр.,м/с)
 
Видим.   Явления Облачность Т
(С)
Тd
(С)
f
(%)
Тe
(С)
Тes
(С)
Комфортность P
(гПа)
Po
(гПа)
Тmin
(С)
Tmax
(С)
R
(мм)
R24
(мм)
S
(см)
00 12.12 З 5 10 км ясно +4.8 -1.8 62 +1 +1 1022.5 1023.0
03 12.12 З 5 10 км ясно +4.4 -2.0 63 -0 -0 1022.6 1023.0
06 12.12 З 9 10 км ясно +10.6 -0.6 46 +7 +7 1023.2 1023.0 +3.9
09 12.12 З 9 10 км ясно +19.7 -2.4 22 +19 +20 1020.8 1021.0
12 12.12 З 7 8000 м пыльный позёмок ясно +21.8 -1.3 21 +21 +22 комфорт 1019.4 1019.0
15 12.12 З 4 10 км 1/0
[Ci fib]
+14.9 -1.3 33 +14 +14 1020.0 1020.0
18 12.12 З 5 6000 м пыль 1/0
[Ci fib]
+11.2 -0.4 45 +9 +9 1021.0 1021.0 +21.9
21 12.12 ЮЗ 4 10 км 1/0
[Ci fib]
+7.8 -0.7 55 +5 +5 1020.4 1020.0
00 13.12 З 3 10 км ясно +5.5 -2.2 58 +3 +3 1020.1 1020.0
03 13.12 ЮЗ 2 10 км ясно +3.1 -3.2 63 +1 +1 1020.2 1020.0
06 13.12 З 5 10 км ясно +9.7 0.0 51 +7 +9 1021.2 1021.0 +2.2
09 13.12 З 4 10 км 1/0
[Ci fib]
+16.3 +1.4 36 +16 +21 1019.2 1019.0
12 13.12 СЗ 5 10 км 3/0
[Ci fib]
+20.4 +1.1 28 +21 +22 комфорт 1017.2 1017.0
15 13.12 штиль 0 10 км ясно +15.9 +3.4 43 +16 +16 1017.4 1017.0
18 13.12 ЮВ 2 10 км ясно +12.2 +2.7 52 +12 +12 1018.0 1018.0 +20.6
21 13.12 ЮВ 3 8000 м мгла ясно +7.0 +0.1 61 +4 +4 1017.4 1017.0
00 14.12 Ю 2 10 км ясно +5.5 +1.8 77 +3 +3 1016.6 1017.0
03 14.12 штиль 0 10 км ясно +5.1 +1.8 79 +4 +4 1016.9 1017.0
06 14.12 В 2 4000 м мгла 4/0
[Cb calv]
+11.1 +7.4 78 +10 +13 1018.2 1018.0 +3.4
12 14.12 ЮВ 6 10 км ясно +22.5 -1.4 20 +21 +22 комфорт 1014.8 1015.0
18 14.12 ЮВ 3 10 км ясно +14.6 +11.4 81 +14 +14 1014.7 1015.0 +22.9
03 15.12 СВ 5 7000 м дымка 3/0
[Ci fib]
+11.5 +11.5 100 +9 +9 1012.9 1013.0
06 15.12 СВ 6 6000 м дымка 4/0
[Ci fib]
+16.4 +14.4 88 +15 +16 1014.0 1014.0 +10.6
09 15.12 СВ 9 8000 м мгла 6/0
[Ac trans Ci fib]
+21.4 +13.7 61 +24 +25 комфорт 1012.5 1013.0
12 15.12 В 4 10 км 4/3 1000 м
[Cu Sc Ac lent]
+20.9 +1.1 27 +21 +22 комфорт 1011.9 1012.0
15 15.12 С 3 10 км 4/0
[Ci fib]
+14.2 +2.0 44 +13 +13 1015.0 1015.0
18 15.12 СВ 3 10 км ясно +11.8 +9.9 88 +10 +10 1016.7 1017.0 +23.1
21 15.12 З 2 10 км ясно +9.4 +8.1 92 +8 +8 1017.2 1017.0
00 16.12 СЗ 4 10 км ясно +8.8 +8.3 97 +6 +6 1017.5 1018.0
03 16.12 СЗ 4 10 км ясно +9.7 +9.7 100 +7 +7 1018.0 1018.0
06 16.12 СЗ 4 10 км ясно +13.1 +11.1 88 +11 +14 1020.4 1020.0 +7.6
09 16.12 СВ 6 10 км ясно +22.0 +12.1 53 +24 +27 комфорт 1019.3 1019.0
12 16.12 СВ 3 10 км 5/4 1200 м
[Cu hum Ac trans]
+23.4 +10.7 45 +26 +27 жарко 1018.4 1018.0
15 16.12 С 3 10 км 1/0
[Ac trans]
+19.0 +9.5 54 +20 +20 1020.1 1020.0
18 16.12 СВ 2 10 км ясно +15.9 +9.8 67 +16 +16 1022.0 1022.0 +23.8
21 16.12 СВ 3 10 км ясно +14.6 +7.8 64 +14 +14 1022.2 1022.0
00 17.12 СЗ 3 10 км ясно +12.3 +8.5 78 +11 +11 1022.2 1022.0
03 17.12 штиль 0 10 км ясно +9.7 +6.3 79 +9 +9 1023.3 1023.0
06 17.12 СЗ 3 8000 м мгла ясно +14.2 +7.3 63 +13 +16 1024.7 1025.0 +9.5
09 17.12 СЗ 4 10 км ясно +22.4 +4.2 30 +22 +28 комфорт 1023.0 1023.0
12 17.12 СЗ 5 10 км ясно +23.2 +5.8 32 +24 +25 комфорт 1021.7 1022.0
15 17.12 З 4 10 км ясно +16.7 +4.8 45 +16 +16 1022.4 1022.0
18 17.12 З 3 10 км ясно +13.1 +4.9 57 +12 +12 1023.1 1023.0 +23.9
21 17.12 З 3 10 км ясно +8.9 +3.0 66 +7 +7 1024.0 1024.0
00 18.12 З 3 10 км ясно +8.0 +2.1 66 +6 +6 1024.3 1024.0
03 18.12 ЮЗ 2 10 км ясно +5.6 +5 +5 1024.5 1025.8
06 18.12 З 4 8000 м мгла ясно +12.0 +3.2 55 +10 +12 1026.6 1027.0 +5.3
09 18.12 З 4 10 км ясно +21.2 +1.5 27 +21 +26 комфорт 1025.0 1025.0
15 18.12 З 3 10 км 1/0
[Ci fib]
+14.8 +0.8 38 +14 +14 1024.4 1024.0

 

Местоположение метеостанции Basrah Airport (Ирак): широта 30.52 долгота 47.78 высота над уровнем моря 3 м.

В архиве по умолчанию представлена погода в Basrah Airport за последнюю неделю. Архивные данные за месяц целиком и за предыдущие месяцы, начиная с января 2011 года, Вы можете получить, выбрав интересующий диапазон дат из раскрывающегося списка и нажав кнопку "Ввод!".

Внимание! Время в таблицах - всемирное. Для получения местного времени необходимо прибавить поправку, которая в Basrah Airport равна 3 ч.

Смотрите также архив погоды в соседних городах и на ближайших метеорологических станциях:

Погода в Basrah (Ирак) (6 км)
Погода в Abadan (Иран) (48 км)
Погода в Abdaly (Кувейт) (50 км)
Погода в Sabriyah (Кувейт) (86 км)
Погода в Mitribah (Кувейт) (87 км)
Погода в Fao (Ирак) (92 км)
Погода в Bubiyan (Кувейт) (101 км)
Погода в Jal Aliyah (Кувейт) (103 км)
Погода в Ahwaz (Иран) (124 км)
Погода в Failaka Island (Кувейт) (126 км)

Пояснения к столбцам:

Ветер - указаны скорость ветра в м/с - средняя за 10 мин, порывы в срок и между сроками (в фигурных скобках) и направление, откуда дует ветер: С - северный, СВ - северо-восточный, В - восточный, ЮВ - юго-восточный, Ю - южный, ЮЗ - юго-западный, З - западный, СЗ - северо-западный.
Видимость - горизонтальная дальность видимости в метрах или километрах. При видимости от 1 до 10 км при отсутствии осадков обычно наблюдается дымка, при ухудшении видимости до 1 км и менее - туман. В сухую погоду видимость может ухудшаться дымом, пылью или мглою.
Явления - указаны атмосферные явления, наблюдавшиеся в срок или в последний час перед сроком; фигурными скобками обозначены явления, наблюдавшиеся между сроками (за 1-3 часа до срока); квадратными скобками обозначены град или гололедные отложения с указанием их диаметра в мм.
Облачность - указаны через наклонную черту общая и нижняя облачность в баллах и высота нижней границы облаков в метрах; квадратными скобками обозначены формы облаков: Ci - перистые, Cs - перисто-слоистые, Cc - перисто-кучевые, Ac - высококучевые, As - высокослоистые, Sc - слоисто-кучевые, Ns - слоисто-дождевые, Cu - кучевые, Cb - кучево-дождевые. Подробнее классификацию облаков см. в Атласе облаков (PDF).
T - Температура воздуха - температура, измеренная на высоте 2 м над землей.
Td - Температура точки росы - температура, при понижении до которой содержащийся в воздухе водяной пар достигнет насыщения.
f - Относительная влажность воздуха - влажноcть воздуха, измеренная на высоте 2 м над землей.
Te - Эффективная температура - температура, которую ощущает одетый по сезону человек в тени. Характеристика душности погоды. При расчете учитывается влияние влажности воздуха и скорости ветра на теплоощущения человека.
Tes - Эффективная температура на солнце - температура, которую ощущает человек, с поправкой на солнечный нагрев. Характеристика знойности погоды. Зависит от высоты солнца над горизонтом, облачности и скорости ветра. Ночью, в пасмурную погоду, а также при ветре 12 м/с и более поправка равна нулю.
P - Атмосферное давление - приведенное к уровню моря атмосферное давление.
Po - Атмосферное давление - измеренное на уровне метеостанции атмосферное давление.
Tmin - Минимальная температура - минимум температуры воздуха на высоте 2 м над землей.
Tmax - Максимальная температура - максимум температуры воздуха на высоте 2 м над землей.
R - Количество осадков - Количество выпавших осадков за период времени, мм. При наведении курсора мыши на число - период времени, за который выпало указанное количество осадков.
R24 - Количество осадков - Количество выпавших осадков за 24 часа, мм.
S - Снежный покров - Высота снежного покрова, см. При наведении курсора мыши на число - состояние снежного покрова и степень покрытия местности в баллах.